Regional Weather Roundup
Issued by NWS

Home | Current Version | Previous Version | Graphics & Text | Print | Product List | Glossary Off
Versions: 1 2 3 4 5 6 7 8 9 10 11 12 13 14 15 16 17 18 19 20 21 22 23 24 25 26 27 28 29 30 31 32 33 34 35 36 37 38 39 40 41 42 43 44 45 46 47 48 49 50

000
ASUS43 KDTX 020710
RWRMI
MICHIGAN HOURLY REGIONAL WEATHER ROUNDUP
NATIONAL WEATHER SERVICE DETROIT/PONTIAC MI
200 AM EST MON MAR 02 2015

NOTE: "FAIR" INDICATES FEW OR NO CLOUDS BELOW 12,000 FEET WITH NO
SIGNIFICANT WEATHER AND/OR OBSTRUCTION TO VISIBILITY.

MIZ047>049-052>055-059>063-066>070-074>076-081>083-020800-
SOUTHEAST LOWER MICHIGAN

CITY           SKY/WX    TMP DP  RH WIND       PRES   REMARKS
ADRIAN         CLOUDY    23  15  71 W9        30.27R WCI  13
ALMA           CLEAR     21  12  69 W12       30.22R WCI   9
ANN ARBOR      FLURRIES  23  17  78 W12       30.23S WCI  12
BAD AXE        FLURRIES  23  19  87 W13G20    30.15R WCI  11
CARO           LGT SNOW  23  19  85 W12       30.17R WCI  11
DETROIT CITY   CLOUDY    25  16  68 W10       30.23R WCI  15
DETROIT        LGT SNOW  24  17  74 W9        30.25R WCI  14
FLINT          FLURRIES  25  17  72 W10       30.21R WCI  15
GROSSE ILE     CLOUDY    25  18  74 W8        30.23R WCI  16
HILLSDALE      FLURRIES  22  17  81 W12G20    30.24R WCI  11
HOWELL         MOCLDY    22  18  84 W8        30.20S WCI  12

CITY           SKY/WX    TMP DP  RH WIND       PRES   REMARKS
JACKSON        LGT SNOW  22  17  81 W12       30.24R WCI  10
LAMBERTVILLE   CLOUDY    25  19  80 W9        30.28R WCI  15
LANSING        LGT SNOW  23  18  81 W12       30.24R WCI  12
LAPEER         FLURRIES  22  18  82 W9        30.18R WCI  12
MASON          CLOUDY    23  17  77 W7        30.22S WCI  15
MONROE         FLURRIES  25  18  74 W13       30.25R WCI  13
MT. CLEMENS    MIX PCPN  23  16  74 W9        30.19R WCI  13
PONTIAC        MOCLDY    21  16  81 W12       30.18S WCI   9
PORT HOPE        N/A     22  16  78 W10G17    30.12R WCI  11
PORT HURON     PTCLDY    21  16  79 SW5       30.20R WCI  15
TRI CITIES     MIX PCPN  25  14  63 W21G32    30.20R WCI  11
TROY           FLURRIES  25  18  72 SW8       30.23R WCI  17
SAGINAW HB     LGT SNOW  25  21  86 SW13      30.19R WCI  13
$$
MIZ043>046-050>051-056>058-064>065-071>073-077>080-020800-
SOUTHWEST LOWER MICHIGAN

CITY           SKY/WX    TMP DP  RH WIND       PRES   REMARKS
BATTLE CREEK   FLURRIES  23  17  78 W13       30.26R WCI  11
BENTON HARBOR  MOCLDY    23  14  68 NW12      30.34R WCI  12
BIG RAPIDS     CLOUDY    22  13  67 NW10      30.20R WCI  11
COLDWATER      FLURRIES  21  16  81 W13       30.28R WCI   9
FREMONT        PTSUNNY   23   8  53 NW12G20   30.25R WCI  11
HOLLAND        PTCLDY    25  12  58 NW10      30.30R WCI  15
GRAND RAPIDS   CLOUDY    24  15  68 NW18G24   30.26R WCI  10
IONIA          CLOUDY    25  20  82 W12       30.23R WCI  14
KALAMAZOO      LGT SNOW  23  18  81 W8        30.28R WCI  14
LUDINGTON      CLEAR     24  11  56 NW10G24   30.26R WCI  13
MARSHALL       FLURRIES  22  18  85 W10       30.25R WCI  11
MOUNT PLEASANT CLEAR     20  12  68 W7        30.20R WCI  12
MUSKEGON       CLOUDY    25  11  55 NW13G23   30.29R WCI  14
SOUTH HAVEN    MOCLDY    26  15  63 NW10G20   30.32R WCI  16
$$
MIZ016>042-020800-
NORTHERN LOWER MICHIGAN

CITY           SKY/WX    TMP DP  RH WIND       PRES   REMARKS
ALPENA         CLOUDY    21  16  81 W8        30.12R WCI  11
BEAVER ISLAND  PTCLDY    20  12  71 W10       30.15R WCI   9
BELLAIRE       PTCLDY    21  13  72 W3        30.17S
CADILLAC       CLEAR     15  10  78 W7        30.15R WCI   5
CHARLEVOIX     CLEAR     19  14  79 W16       30.18R WCI   5
FRANKFORT      CLEAR     23  13  67 NW17G25   30.21R WCI   9
GAYLORD        PTCLDY    17  11  77 W10       30.09R WCI   5
GRAYLING       CLEAR     16  10  75 W6        30.13R WCI   8
HARBOR SPRINGS CLOUDY    18  13  82 W5        30.13R WCI  11
HOUGHTON LAKE  CLEAR     16   8  71 W9        30.14R WCI   4
MANISTEE       CLEAR     23  10  58 NW20      30.23R WCI   8
OSCODA         FLURRIES  21  18  86 W9        30.13R WCI  11
PELLSTON       MOCLDY    20  11  68 W12       30.12R WCI   8
ROGERS CITY    CLOUDY    21  16  79 W6        30.11R WCI  14
TRAVERSE CITY  CLEAR     19  10  68 W8        30.18R WCI   9
$$
MIZ007>008-015-020800-
EASTERN UPPER MICHIGAN

CITY           SKY/WX    TMP DP  RH WIND       PRES   REMARKS
KINROSS        PTCLDY    16  16 100 W10       30.06R WCI   3
MACKINAC ISLAN PTCLDY    19  11  73 W18G25    30.09R WCI   3
NEWBERRY       CLOUDY    17  11  78 W12G18    30.09R WCI   4
S. S. MARIE    MOCLDY    17  12  80 W9        30.04S WCI   6
MUNISING         N/A     23  11  60 N14G23    30.16R WCI  11
$$
MIZ004>006-011>014-085-020800-
CENTRAL UPPER MICHIGAN

CITY           SKY/WX    TMP DP  RH WIND       PRES   REMARKS
MANISTIQUE     FLURRIES  19  11  70 W9        30.14R WCI   8
ESCANABA       MOCLDY    12   7  79 W5        30.21R WCI   4
MENOMINEE      CLEAR     18   5  57 W6        30.22R WCI   9
SAWYER-GWINN   FLURRIES  17   9  71 N7        30.14R WCI   7
$$
MIZ001>003-009>011-084-020800-
WESTERN UPPER MICHIGAN

CITY           SKY/WX    TMP DP  RH WIND       PRES   REMARKS
IRON MOUNTAIN  CLOUDY    15   4  61 W8        30.17R WCI   4
HOUGHTON       CLOUDY    15   5  64 NW20      30.16R WCI  -2
COPPER HARBOR    N/A     17   7  64 N20       30.16R WCI   1
IRONWOOD       CLOUDY    18   7  62 NW17G24   30.23R WCI   2
$$

ABBREVIATIONS USED IN REMARKS
   TC - TEMPERATURE IN CELSIUS
  WCI - WIND CHILL INDEX
   HX - HEAT INDEX
  VSB - VISIBILITY




USA.gov is the U.S. government's official web portal to all federal, state and local government web resources and services.